This is the latest recevied weather packets stored in our database for station/object KC1TLF-15. If no packets are shown the sender has not sent any weather packets the latest 10 day(s).
| Time | Temp. | Humidity | Pressure | Rain* | Wind** | Luminosity | Snow |
|---|---|---|---|---|---|---|---|
| 1777954269 | 12.78° C | 65% | 1018.1 hPa | 0 mm | 0 m/s | 0 W/m² | - |
| 1777953669 | 12.78° C | 64% | 1017.9 hPa | 0 mm | 0 m/s | 0 W/m² | - |
| 1777953070 | 12.78° C | 64% | 1018.1 hPa | 0 mm | 0 m/s | 0 W/m² | - |
| 1777952471 | 12.78° C | 63% | 1017.9 hPa | 0 mm | 0 m/s | 0 W/m² | - |
| 1777951871 | 13.33° C | 62% | 1017.9 hPa | 0 mm | 0 m/s | 0 W/m² | - |
| 1777951271 | 13.89° C | 60% | 1017.9 hPa | 0 mm | 0 m/s | 0 W/m² | - |
| 1777950671 | 13.89° C | 59% | 1017.9 hPa | 0 mm | 0 m/s | 0 W/m² | - |
| 1777950070 | 13.89° C | 58% | 1017.8 hPa | 0 mm | 0 m/s | 0 W/m² | - |
| 1777949471 | 14.44° C | 57% | 1017.7 hPa | 0 mm | 0 m/s | 0 W/m² | - |
| 1777948870 | 15° C | 56% | 1017.8 hPa | 0 mm | 0 m/s | 0 W/m² | - |
| 1777948270 | 14.44° C | 56% | 1018 hPa | 0 mm | 0 m/s | 0 W/m² | - |
| 1777947671 | 14.44° C | 56% | 1018.1 hPa | 0 mm | 0.45 m/s, 316° | 0 W/m² | - |
| 1777947070 | 15° C | 56% | 1018 hPa | 0 mm | 0.45 m/s, 321° | 0 W/m² | - |
| 1777946471 | 15° C | 56% | 1017.9 hPa | 0 mm | 0 m/s | 0 W/m² | - |
| 1777945870 | 15.56° C | 54% | 1017.9 hPa | 0 mm | 0 m/s | 0 W/m² | - |
| 1777945270 | 15.56° C | 54% | 1017.7 hPa | 0 mm | 0 m/s | 0 W/m² | - |
| 1777944669 | 15.56° C | 53% | 1017.8 hPa | 0 mm | 0.45 m/s, 4° | 0 W/m² | - |
| 1777944070 | 16.11° C | 52% | 1017.3 hPa | 0 mm | 0 m/s | 0 W/m² | - |
| 1777943470 | 15.56° C | 52% | 1017.4 hPa | 0 mm | 0.45 m/s, 277° | 0 W/m² | - |
| 1777942869 | 16.11° C | 52% | 1017.3 hPa | 0 mm | 0.45 m/s, 326° | 0 W/m² | - |
| 1777942271 | 16.67° C | 50% | 1017 hPa | 0 mm | 0 m/s | 0 W/m² | - |
| 1777941670 | 16.67° C | 49% | 1017.1 hPa | 0 mm | 0.45 m/s, 278° | 0 W/m² | - |
| 1777941070 | 17.22° C | 48% | 1016.5 hPa | 0 mm | 0 m/s | 0 W/m² | - |
| 1777940471 | 17.22° C | 48% | 1016.1 hPa | 0 mm | 0.45 m/s, 332° | - | - |
| 1777939870 | 17.78° C | 47% | 1016 hPa | 0 mm | 0 m/s | - | - |
* Rain latest hour (hover to see other rain measurements)
** Current wind speed in m/s (hover to see current wind gust speed)